Погода в Коломые

Украина / Ивано-Франковская область     48°31′33″N   25°02′16″E
темп.,
°C
ветер,
м/с
пор.,
м/с
влажн.,
%
обл.,
%
осадки,
мм/ч
давл.,
гПа
погр.,
м
2 декабря, чт
чт223:00+4ююз2106989 0.0 1003429
02:00+6зюз2971100 0.0 1001329
05:00+6юз3970100 0.0 1001295
08:00+5ююз3679100 0.1 1002282
11:00+8юз5116233 0.1 1001948
14:00+8юз4966100 0.1 1001794
17:00+6ююв2281100 0.0 100237
20:00+6ююв1179100 0.0 100111
3 декабря, пт
пт323:00+6юз1179100 0.0 100110
02:00+5ююв2285100 0.1 100012
05:00+6ююз228299 0.0 99819
08:00+3сз71194100 0.4 1001405
11:00+1сз61195100 3.4 1006723
14:000сз5991100 5.8 1009695
17:000сз4892100 0.5 1012633
20:00−2зсз259199 0.6 1015147
4 декабря, сб
сб423:00−5зюз22949 0.0 101714
02:00−6юз21949 0.0 101715
05:00−7ююз22935 0.0 101717
08:00−7ююз11935 0.0 101712
11:00−1юв3572100 0.0 1014275
14:00+2юв3571100 0.0 1011329
17:00−3ююв228787 0.0 101020
20:00−3ююв128940 0.0 101018
5 декабря, вс
вс523:00−4ю118978 0.0 100916
02:00−4ю1188100 0.0 100815
05:00−2ю1187100 0.0 100713
08:00−1юв2289100 0.0 100733
11:00+1юв2486100 0.0 1007129
14:00+3в1284100 0.0 1006105
17:00+1ююв119296 0.0 100720
20:00+2ююв1192100 0.0 100815
6 декабря, пн
пн623:00+1юв1192100 0.0 100816
02:00−1ююв1193100 0.0 100810
05:00−2зсз1194100 0.0 100810
08:00−1сз1195100 0.0 100913
11:00+2ссз2490100 0.0 1010198
14:00+1зсз35100100 3.2 1010146
17:00+1зсз51098100 3.1 1012565
20:000зсз51198100 4.4 1013677